Regional Weather Roundup
Issued by NWS

Home | Current Version | Previous Version | Graphics & Text | Print | Product List | Glossary On
Versions: 1 2 3 4 5 6 7 8 9 10 11 12 13 14 15 16 17 18 19 20 21 22 23 24 25 26 27 28 29 30 31 32 33 34 35 36 37 38 39 40 41 42 43 44 45 46 47 48 49 50
000
ASUS43 KIND 301859
RWRIN

WEATHER ROUNDUP FOR INDIANA
NATIONAL WEATHER SERVICE INDIANAPOLIS IN
300 PM EDT FRI SEP 30 2016

NOTE: "FAIR" INDICATES FEW OR NO CLOUDS BELOW 12,000 FEET WITH NO
SIGNIFICANT WEATHER AND/OR OBSTRUCTIONS TO VISIBILITY.

* - STATION DOES NOT REPORT WEATHER SUCH AS PRECIPITATION OR FOG.

+ - STATION NOT QUALITY CONTROLLED BY THE NATIONAL WEATHER SERVICE.
    USE DATA WITH CAUTION...ESPECIALLY DEWPOINT AND RELATIVE
    HUMIDITY OBSERVATIONS.

INZ001>003-010>013-019-020-302000-
NORTHWEST INDIANA

CITY           SKY/WX    TMP DP  RH WIND       PRES   REMARKS
GARY /AIRPORT/ PTSUNNY   66  63  88 NE17      30.08F

$$

LMZ046-743>745-302000-
SOUTHERN LAKE MICHIGAN

STATION/POSITION TIME  TEMP    WIND        PRES    WAVE
                       AIR SEA DIR/SP/G            HT
                 (UTC) (F)     (DEG/KT/KT) (MB)    (FT)
BURNS HARBOR     1840   64      40/ 16/ 18 1018.3F
MICHIGAN CITY    1830   62      30/ 11/ 12   N/A
5NW MICH CITY    1850   63 64   40/ 14/ 19   N/A     6

$$

INZ004-005-014>016-021>024-302000-
NORTH CENTRAL INDIANA

CITY           SKY/WX    TMP DP  RH WIND       PRES   REMARKS
ELKHART        CLOUDY    66  61  82 NE14      30.06F
GOSHEN         CLOUDY    65  59  81 E9        30.06F
PERU/GRISSOM   PTSUNNY   64  61  88 NE13      30.01F
SOUTH BEND     CLOUDY    64  59  83 E8        30.07F

$$

INZ006>009-017-018-025>027-302000-
NORTHEAST INDIANA

CITY           SKY/WX    TMP DP  RH WIND       PRES   REMARKS
ANGOLA *+        N/A     63  54  72 E10       30.07S
FORT WAYNE     LGT RAIN  63  59  87 NE12      30.03F
KENDALLVILLE + LGT RAIN  63  59  87 SE6       30.07F

$$

INZ028-029-035-036-043>045-051>053-302000-
WEST CENTRAL INDIANA

CITY           SKY/WX    TMP DP  RH WIND       PRES   REMARKS
CRAWFORDSVL +  CLOUDY    63  59  88 N3        30.00F
LAFAYETTE      PTSUNNY   65  61  87 NE13      30.00F
TERRE HAUTE    PTSUNNY   68  56  65 N7        29.99F

$$

INZ030>032-037>040-046>048-054>057-064-065-302000-
CENTRAL INDIANA

CITY           SKY/WX    TMP DP  RH WIND       PRES   REMARKS
ANDERSON       CLOUDY    63  63 100 CALM      30.01F
COLUMBUS       PTSUNNY   64  59  82 N5        30.00F
INDIANAPOLIS   PTSUNNY   66  56  70 N5        29.99F
-EAGLE CREEK   PTSUNNY   67  55  65 CALM      29.99F
KOKOMO *+      CLOUDY    64  59  82 NE14      30.02F
MT COMFORT *+  CLOUDY    66  55  68 CALM      30.00F
SHELBYVILLE    CLOUDY    67  54  63 CALM      29.99F

$$

INZ033-034-041-042-049-050-058-059-302000-
EAST CENTRAL INDIANA

CITY           SKY/WX    TMP DP  RH WIND       PRES   REMARKS
MUNCIE         CLOUDY    66  59  78 NE13      30.00F

$$

INZ060-061-067>069-081>083-085>088-302000-
SOUTHWEST INDIANA

CITY           SKY/WX    TMP DP  RH WIND       PRES   REMARKS
EVANSVILLE     PTSUNNY   70  53  54 N5        30.00F
HUNTINGBURG *+   N/A     66  54  63 CALM      30.01F

$$

INZ062-063-066-070>080-084-089>092-302000-
SOUTH CENTRAL AND SOUTHEAST INDIANA

CITY           SKY/WX    TMP DP  RH WIND       PRES   REMARKS
BLOOMINGTON    CLOUDY    66  54  65 NE6       30.00F
MADISON *+     PTSUNNY   63  50  63 S9        30.03F
SEYMOUR +      CLOUDY    68  52  56 S3        29.99F

$$





USA.gov is the U.S. government's official web portal to all federal, state and local government web resources and services.